Location: Bernay
(48.6766°N, 2.9386°E)
Time: 00:16:48
(UTC+00:00)

Cosmos 2369 Rocket - Pass Details

Date: 12 January 2026
Orbit: 827 x 853 km, 71.0° (Epoch: 16 February)

Event Time Altitude Azimuth Distance (km) Brightness Sun altitude
Rises 17:21:02 0° 330° (NNW) 3,431 5.5 -10.4°
Reaches altitude 10° 17:23:31 10° 328° (NNW) 2,491 4.8 -10.8°
Maximum altitude 17:29:11 67° 247° (WSW) 922 2.7 -11.7°
Drops below altitude 10° 17:34:47 10° 166° (SSE) 2,464 4.7 -12.6°
Sets 17:37:14 0° 163° (SSE) 3,391 5.4 -12.9°
